• In Belgien
  • Länderverzeichnis
  • Für 7 Tage
  • Wassertemperatur
  • Satellitenkarten
  • Wetterkarte
  • Widgets
  • user-avatar
    Anmelden

    Stündliche Wetter Pelageinskoe

    Heute, 24 September, Montag

    Zeit Temperatur Niederschläge Wind Luftdruck Luftfeuchtigkeit
    00:00 +8°C° 0 mm 3 m/S 745 mmHg 87%
    01:00 +8°C° 0 mm 3 m/S 745 mmHg 89%
    02:00 +7°C° 0 mm 3 m/S 745 mmHg 90%
    03:00 +6°C° 0 mm 2 m/S 745 mmHg 94%
    04:00 +6°C° 0 mm 2 m/S 745 mmHg 95%
    05:00 +6°C° 0 mm 2 m/S 745 mmHg 95%
    06:00 +6°C° 0 mm 2 m/S 745 mmHg 96%
    07:00 +7°C° 0 mm 3 m/S 745 mmHg 91%
    08:00 +8°C° 0 mm 3 m/S 745 mmHg 86%
    09:00 +9°C° 0 mm 3 m/S 745 mmHg 80%
    10:00 +11°C° 0 mm 3 m/S 745 mmHg 73%
    11:00 +12°C° 0 mm 4 m/S 745 mmHg 66%
    12:00 +14°C° 0 mm 4 m/S 745 mmHg 60%
    13:00 +13°C° 0.3 mm 4 m/S 744 mmHg 65%
    14:00 +12°C° 0.3 mm 4 m/S 744 mmHg 70%
    15:00 +12°C° 0 mm 3 m/S 744 mmHg 76%
    16:00 +11°C° 0.9 mm 4 m/S 743 mmHg 80%
    17:00 +10°C° 0.9 mm 4 m/S 743 mmHg 85%
    18:00 +8°C° 0.9 mm 4 m/S 742 mmHg 89%
    19:00 +8°C° 1.8 mm 5 m/S 741 mmHg 89%
    20:00 +7°C° 1.8 mm 5 m/S 740 mmHg 90%
    21:00 +7°C° 1.8 mm 6 m/S 739 mmHg 91%
    22:00 +7°C° 1.6 mm 6 m/S 738 mmHg 91%
    23:00 +7°C° 1.6 mm 5 m/S 737 mmHg 91%

    Morgen, 25 September, Dienstag

    Zeit Temperatur Niederschläge Wind Luftdruck Luftfeuchtigkeit
    00:00 +7°C° 1.6 mm 5 m/S 736 mmHg 91%
    01:00 +8°C° 0.7 mm 5 m/S 735 mmHg 91%
    02:00 +8°C° 0.7 mm 5 m/S 734 mmHg 91%
    03:00 +10°C° 0.7 mm 4 m/S 734 mmHg 91%
    04:00 +8°C° 0.3 mm 4 m/S 734 mmHg 91%
    05:00 +9°C° 0.3 mm 3 m/S 733 mmHg 91%
    06:00 +8°C° 0.3 mm 3 m/S 733 mmHg 91%
    07:00 +8°C° 0.3 mm 3 m/S 734 mmHg 91%
    08:00 +7°C° 0.3 mm 4 m/S 734 mmHg 91%
    09:00 +7°C° 0.3 mm 4 m/S 735 mmHg 91%
    10:00 +7°C° 0.4 mm 5 m/S 735 mmHg 90%
    11:00 +7°C° 0.4 mm 5 m/S 736 mmHg 89%
    12:00 +7°C° 0.4 mm 6 m/S 737 mmHg 88%
    13:00 +7°C° 0.3 mm 6 m/S 738 mmHg 88%
    14:00 +6°C° 0.3 mm 7 m/S 739 mmHg 87%
    15:00 +6°C° 0.3 mm 7 m/S 740 mmHg 86%
    16:00 +6°C° 0.3 mm 7 m/S 741 mmHg 86%
    17:00 +6°C° 0.3 mm 7 m/S 741 mmHg 85%
    18:00 +6°C° 0.3 mm 7 m/S 742 mmHg 85%
    19:00 +5°C° 0.1 mm 7 m/S 743 mmHg 84%
    20:00 +5°C° 0.1 mm 6 m/S 744 mmHg 83%
    21:00 +5°C° 0.1 mm 6 m/S 745 mmHg 82%
    22:00 +4°C° 0 mm 6 m/S 746 mmHg 82%
    23:00 +4°C° 0 mm 6 m/S 746 mmHg 83%

    übermorgen, 26 September, Mittwoch

    Zeit Temperatur Niederschläge Wind Luftdruck Luftfeuchtigkeit
    00:00 +3°C° 0 mm 6 m/S 747 mmHg 83%
    01:00 +3°C° 0 mm 6 m/S 748 mmHg 82%
    02:00 +2°C° 0 mm 5 m/S 749 mmHg 82%
    03:00 +2°C° 0 mm 5 m/S 750 mmHg 81%
    04:00 +1°C° 0 mm 5 m/S 751 mmHg 81%
    05:00 +1°C° 0 mm 5 m/S 751 mmHg 81%
    06:00 0°C° 0 mm 4 m/S 752 mmHg 80%
    07:00 +1°C° 0 mm 4 m/S 753 mmHg 76%
    08:00 +3°C° 0 mm 4 m/S 754 mmHg 71%
    09:00 +3°C° 0 mm 4 m/S 754 mmHg 67%
    10:00 +5°C° 0 mm 4 m/S 754 mmHg 62%
    11:00 +6°C° 0 mm 4 m/S 755 mmHg 56%
    12:00 +8°C° 0 mm 4 m/S 755 mmHg 51%
    13:00 +8°C° 0 mm 4 m/S 754 mmHg 52%
    14:00 +10°C° 0 mm 4 m/S 754 mmHg 53%
    15:00 +11°C° 0 mm 4 m/S 754 mmHg 54%
    16:00 +10°C° 0 mm 4 m/S 753 mmHg 60%
    17:00 +9°C° 0 mm 3 m/S 753 mmHg 66%
    18:00 +8°C° 0 mm 3 m/S 753 mmHg 71%
    19:00 +7°C° 0 mm 4 m/S 752 mmHg 71%
    20:00 +7°C° 0 mm 4 m/S 751 mmHg 70%
    21:00 +7°C° 0 mm 5 m/S 751 mmHg 70%
    22:00 +7°C° 0.1 mm 6 m/S 750 mmHg 70%
    23:00 +5°C° 0.1 mm 6 m/S 748 mmHg 70%

    27 September, Donnerstag

    Zeit Temperatur Niederschläge Wind Luftdruck Luftfeuchtigkeit
    00:00 +5°C° 0.1 mm 7 m/S 747 mmHg 70%
    01:00 +5°C° 1 mm 7 m/S 746 mmHg 75%
    02:00 +5°C° 1 mm 7 m/S 745 mmHg 80%
    03:00 +4°C° 1 mm 8 m/S 743 mmHg 85%
    04:00 +4°C° 1.5 mm 8 m/S 742 mmHg 86%
    05:00 +5°C° 1.5 mm 7 m/S 741 mmHg 88%
    06:00 +5°C° 1.5 mm 7 m/S 740 mmHg 89%
    07:00 +5°C° 0.6 mm 7 m/S 740 mmHg 88%
    08:00 +7°C° 0.6 mm 6 m/S 739 mmHg 86%
    09:00 +8°C° 0.6 mm 6 m/S 739 mmHg 84%
    10:00 +8°C° 0.2 mm 6 m/S 739 mmHg 78%
    11:00 +9°C° 0.2 mm 7 m/S 739 mmHg 71%
    12:00 +10°C° 0.2 mm 7 m/S 740 mmHg 65%
    13:00 +10°C° 0.2 mm 7 m/S 740 mmHg 63%
    14:00 +9°C° 0.2 mm 7 m/S 740 mmHg 61%
    15:00 +9°C° 0.2 mm 7 m/S 741 mmHg 60%
    16:00 +9°C° 0.1 mm 6 m/S 741 mmHg 63%
    17:00 +8°C° 0.1 mm 5 m/S 742 mmHg 66%
    18:00 +7°C° 0.1 mm 4 m/S 742 mmHg 70%
    19:00 +7°C° 0 mm 4 m/S 742 mmHg 71%
    20:00 +6°C° 0 mm 4 m/S 743 mmHg 73%
    21:00 +6°C° 0 mm 4 m/S 743 mmHg 74%
    22:00 +5°C° 0 mm 5 m/S 743 mmHg 75%
    23:00 +5°C° 0 mm 5 m/S 743 mmHg 76%

    28 September, Freitag

    Zeit Temperatur Niederschläge Wind Luftdruck Luftfeuchtigkeit
    00:00 +5°C° 0 mm 5 m/S 744 mmHg 76%
    01:00 +5°C° 0 mm 5 m/S 744 mmHg 78%
    02:00 +4°C° 0 mm 4 m/S 744 mmHg 79%
    03:00 +4°C° 0 mm 4 m/S 744 mmHg 80%
    04:00 +4°C° 0 mm 4 m/S 744 mmHg 81%
    05:00 +4°C° 0 mm 4 m/S 744 mmHg 82%
    06:00 +4°C° 0 mm 4 m/S 744 mmHg 83%
    07:00 +4°C° 0.8 mm 3 m/S 743 mmHg 85%
    08:00 +4°C° 0.8 mm 3 m/S 742 mmHg 87%
    09:00 +4°C° 0.8 mm 3 m/S 741 mmHg 90%
    10:00 +4°C° 2.9 mm 3 m/S 740 mmHg 91%
    11:00 +4°C° 2.9 mm 4 m/S 739 mmHg 92%
    12:00 +4°C° 2.9 mm 4 m/S 738 mmHg 92%
    13:00 +5°C° 0.9 mm 4 m/S 738 mmHg 91%
    14:00 +5°C° 0.9 mm 4 m/S 738 mmHg 91%
    15:00 +5°C° 0.9 mm 4 m/S 738 mmHg 90%
    16:00 +5°C° 0.1 mm 4 m/S 739 mmHg 88%
    17:00 +5°C° 0.1 mm 4 m/S 741 mmHg 87%
    18:00 +4°C° 0.1 mm 4 m/S 742 mmHg 85%
    19:00 +4°C° 0 mm 4 m/S 743 mmHg 85%
    20:00 +3°C° 0 mm 4 m/S 745 mmHg 85%
    21:00 +1°C° 0 mm 4 m/S 746 mmHg 85%
    22:00 +1°C° 0 mm 4 m/S 746 mmHg 86%
    23:00 +1°C° 0 mm 3 m/S 747 mmHg 87%

    29 September, Samstag

    Zeit Temperatur Niederschläge Wind Luftdruck Luftfeuchtigkeit
    00:00 +1°C° 0 mm 3 m/S 748 mmHg 89%
    01:00 +1°C° 0 mm 3 m/S 748 mmHg 90%
    02:00 +1°C° 0 mm 3 m/S 749 mmHg 91%
    03:00 0°C° 0 mm 3 m/S 750 mmHg 92%
    04:00 0°C° 0 mm 3 m/S 750 mmHg 93%
    05:00 +1°C° 0 mm 2 m/S 750 mmHg 93%
    06:00 -1°C° 0 mm 2 m/S 750 mmHg 94%
    07:00 +1°C° 0.2 mm 2 m/S 751 mmHg 90%
    08:00 +2°C° 0.2 mm 2 m/S 751 mmHg 87%
    09:00 +3°C° 0.2 mm 2 m/S 751 mmHg 84%
    10:00 +4°C° 0.1 mm 2 m/S 752 mmHg 82%
    11:00 +5°C° 0.1 mm 2 m/S 752 mmHg 81%
    12:00 +6°C° 0.1 mm 2 m/S 752 mmHg 80%
    13:00 +6°C° 0.1 mm 2 m/S 752 mmHg 79%
    14:00 +6°C° 0.1 mm 2 m/S 753 mmHg 78%
    15:00 +7°C° 0.1 mm 2 m/S 753 mmHg 76%
    16:00 +6°C° 0 mm 2 m/S 753 mmHg 80%
    17:00 +5°C° 0 mm 2 m/S 753 mmHg 83%
    18:00 +4°C° 0 mm 2 m/S 754 mmHg 86%
    19:00 +4°C° 0 mm 1 m/S 754 mmHg 87%
    20:00 +3°C° 0 mm 1 m/S 755 mmHg 88%
    21:00 +3°C° 0 mm 1 m/S 755 mmHg 88%
    22:00 +2°C° 0 mm 1 m/S 756 mmHg 88%
    23:00 +2°C° 0 mm 1 m/S 756 mmHg 88%
    Mehr zeigen